TimeEDT,TemperatureF,Dew PointF,Humidity,Sea Level PressureIn,VisibilityMPH,Wind Direction,Wind SpeedMPH,Gust SpeedMPH,PrecipitationIn,Events,Conditions,WindDirDegrees,DateUTC
12:56 AM,48.9,39.9,71,29.75,10.0,West,10.4,-,N/A,,Overcast,270,2013-11-02 04:56:00
1:56 AM,48.0,39.9,74,29.75,10.0,West,9.2,-,N/A,,Overcast,260,2013-11-02 05:56:00
2:56 AM,48.0,39.9,74,29.75,10.0,West,10.4,-,N/A,,Overcast,260,2013-11-02 06:56:00
3:56 AM,48.0,41.0,77,29.75,10.0,West,11.5,-,N/A,,Overcast,260,2013-11-02 07:56:00
4:49 AM,48.2,42.8,82,29.75,10.0,West,10.4,-,N/A,,Overcast,260,2013-11-02 08:49:00
4:56 AM,48.0,42.1,80,29.76,10.0,West,10.4,-,N/A,,Overcast,260,2013-11-02 08:56:00
5:56 AM,46.9,41.0,80,29.77,10.0,West,11.5,-,N/A,,Overcast,280,2013-11-02 09:56:00
6:56 AM,46.0,39.9,79,29.79,10.0,West,11.5,-,N/A,,Overcast,270,2013-11-02 10:56:00
7:07 AM,46.4,39.2,76,29.79,10.0,West,9.2,-,N/A,,Overcast,260,2013-11-02 11:07:00
7:56 AM,46.0,41.0,83,29.81,10.0,West,9.2,-,N/A,,Overcast,260,2013-11-02 11:56:00
8:56 AM,46.0,42.1,86,29.82,9.0,West,8.1,-,N/A,,Overcast,270,2013-11-02 12:56:00
9:48 AM,48.2,42.8,82,29.83,9.0,WNW,11.5,-,N/A,,Mostly Cloudy,290,2013-11-02 13:48:00
9:56 AM,48.0,42.1,80,29.84,9.0,West,9.2,-,N/A,,Mostly Cloudy,280,2013-11-02 13:56:00
10:35 AM,48.2,39.2,71,29.85,9.0,West,12.7,-,N/A,,Mostly Cloudy,280,2013-11-02 14:35:00
10:56 AM,48.0,41.0,77,29.86,8.0,WNW,11.5,-,N/A,,Overcast,300,2013-11-02 14:56:00
11:56 AM,50.0,39.0,66,29.87,10.0,West,10.4,-,N/A,,Mostly Cloudy,280,2013-11-02 15:56:00
12:56 PM,51.1,39.0,63,29.88,10.0,West,10.4,-,N/A,,Scattered Clouds,280,2013-11-02 16:56:00
1:56 PM,54.0,36.0,51,29.88,10.0,West,15.0,24.2,N/A,,Mostly Cloudy,270,2013-11-02 17:56:00
2:56 PM,52.0,37.0,57,29.89,10.0,West,18.4,-,N/A,,Mostly Cloudy,270,2013-11-02 18:56:00
3:56 PM,53.1,37.0,55,29.90,10.0,WNW,16.1,-,N/A,,Mostly Cloudy,290,2013-11-02 19:56:00
4:56 PM,51.1,37.0,59,29.92,10.0,WNW,13.8,-,N/A,,Mostly Cloudy,300,2013-11-02 20:56:00
5:56 PM,51.1,37.9,61,29.95,10.0,WNW,16.1,20.7,N/A,,Overcast,300,2013-11-02 21:56:00
6:45 PM,48.2,39.2,71,29.97,10.0,West,15.0,-,0.00,,Mostly Cloudy,280,2013-11-02 22:45:00
6:56 PM,46.9,41.0,80,29.99,10.0,West,10.4,-,0.00,,Mostly Cloudy,280,2013-11-02 22:56:00
7:32 PM,46.4,41.0,81,29.99,10.0,NW,6.9,-,N/A,,Overcast,310,2013-11-02 23:32:00
7:56 PM,46.9,39.0,74,30.01,10.0,WNW,12.7,-,0.00,,Light Drizzle,290,2013-11-02 23:56:00
8:56 PM,45.0,41.0,86,30.04,10.0,NW,8.1,-,0.00,,Overcast,310,2013-11-03 00:56:00
9:56 PM,45.0,41.0,86,30.06,10.0,NW,8.1,-,N/A,,Overcast,310,2013-11-03 01:56:00
10:56 PM,44.1,39.9,85,30.09,10.0,NW,9.2,-,N/A,,Overcast,310,2013-11-03 02:56:00
11:56 PM,44.1,41.0,89,30.10,10.0,NW,8.1,-,N/A,,Overcast,310,2013-11-03 03:56:00